User: anonymous   Login
Location: *
(2.5500°S, 65.9667°W)
Time: 03:22:07
(UTC+00:00)
Language:

Ariane 3 Deb - Orbit

View from above orbital plane
View from above orbital plane
View from above satellite
View from above satellite

Ground track
Ground track

The orbit data is extracted from the following two-line orbital elements,

1 18571U 87078F   22025.83897193  .00004528  00000-0  79117-3 0  9998
2 18571   6.7443 226.4493 5702648 234.4165  58.2435  4.49717469356748
Epoch (UTC): 25 January 2022 20:08:07
Eccentricity: 0.5702648
inclination: 6.7443°
perigee height: 284 km
apogee height: 17967 km
right ascension of ascending node: 226.4493°
argument of perigee: 234.4165°
revolutions per day: 4.49717469
mean anomaly at epoch: 58.2435°
orbit number at epoch: 35674

The dashed part of the orbit path shows where the satellite is in the earth's shadow,  

DLR